STARLINK-1581 (46042 NORAD) Tracking and Keplerian Element Data

This shows tracking and keplerian element data for the satellite.

Feedback or suggestion? Click here.




ElementValue
Catalog46042
NameSTARLINK-1581
Epoch Orbit1875
Epoch Day339.08823226
Epoch Year2020
RAAN112.9675
Inclination53.0123
Eccentricity0.0001676
Argument of Perigee78.233
Mean Anonmoly281.8846
Mean Motion15.0558153
Decay Rate7.74E-06
L11 46042U 20055R 20339.08823226 .00000774 00000-0 72305-4 0 9995
L22 46042 53.0123 112.9675 0001676 78.2330 281.8846 15.05581530 18757

Live tracking and technical data element details for STARLINK-1581 (NORAD 46042). STARLINK-1581 can be tracked NOW for your location showing map with azimuth and elevation plus other details from your city location.

Track the satellite on the map from your city or location and see movement details for azimuth, elevation, latitude, longitude, range, height, and movement on the map or in text.







IsCatalogInMostPopularTable: catalog: 46042, numindb: 25
Update: records affected: 1



GetName: 46042 STARLINK-1581

Hit Count: updated at: Sun, 06 Dec 2020 01:36:25 GMT